When you browse on this site, cookies collect data to enhance your experience and personalize the content and advertising you see.
Visit our Privacy Policy to learn more. By continuing to use the site, you agree to this use of cookies and data.
  • In Lithuania
  • List of Countries
  • For 7 days
  • Water Temperature
  • Weather Map
  • Weather Widgets
  • user-avatar
    Login

    Hourly Weather Asadabad

    Today, 3 June, Wednesday

    Time Temperature Precipitation Wind Pressure Humidity
    00:00 +20°C° 0 mm 0 mps 657 mmHg 71%
    01:00 +20°C° 0 mm 0 mps 656 mmHg 71%
    02:00 +22°C° 0 mm 1 mps 656 mmHg 71%
    03:00 +21°C° 0.1 mm 1 mps 656 mmHg 70%
    04:00 +19°C° 0.1 mm 0 mps 655 mmHg 70%
    05:00 +19°C° 0 mm 0 mps 655 mmHg 69%
    06:00 +20°C° 0.2 mm 0 mps 656 mmHg 63%
    07:00 +21°C° 0.2 mm 0 mps 656 mmHg 57%
    08:00 +22°C° 0.2 mm 0 mps 657 mmHg 51%
    09:00 +25°C° 0.2 mm 1 mps 657 mmHg 49%
    10:00 +26°C° 0.2 mm 1 mps 657 mmHg 47%
    11:00 +27°C° 0.2 mm 2 mps 657 mmHg 45%
    12:00 +27°C° 0.4 mm 2 mps 657 mmHg 44%
    13:00 +28°C° 0.4 mm 1 mps 657 mmHg 43%
    14:00 +28°C° 0.4 mm 1 mps 657 mmHg 41%
    15:00 +27°C° 0.6 mm 2 mps 656 mmHg 46%
    16:00 +26°C° 0.6 mm 2 mps 655 mmHg 50%
    17:00 +25°C° 0.6 mm 3 mps 655 mmHg 54%
    18:00 +24°C° 0.1 mm 2 mps 655 mmHg 57%
    19:00 +23°C° 0.1 mm 2 mps 655 mmHg 59%
    20:00 +23°C° 0.1 mm 1 mps 655 mmHg 62%
    21:00 +23°C° 0 mm 1 mps 655 mmHg 61%
    22:00 +23°C° 0 mm 1 mps 655 mmHg 61%
    23:00 +22°C° 0 mm 1 mps 656 mmHg 60%

    Tomorrow, 4 June, Thursday

    Time Temperature Precipitation Wind Pressure Humidity
    00:00 +22°C° 0 mm 1 mps 655 mmHg 60%
    01:00 +22°C° 0 mm 1 mps 655 mmHg 59%
    02:00 +22°C° 0 mm 1 mps 655 mmHg 59%
    03:00 +21°C° 0 mm 1 mps 655 mmHg 58%
    04:00 +21°C° 0 mm 1 mps 655 mmHg 56%
    05:00 +21°C° 0 mm 1 mps 655 mmHg 55%
    06:00 +23°C° 0 mm 1 mps 655 mmHg 50%
    07:00 +24°C° 0 mm 1 mps 656 mmHg 45%
    08:00 +24°C° 0 mm 0 mps 656 mmHg 40%
    09:00 +27°C° 0 mm 1 mps 657 mmHg 39%
    10:00 +28°C° 0 mm 2 mps 657 mmHg 37%
    11:00 +29°C° 0 mm 2 mps 657 mmHg 36%
    12:00 +30°C° 0.1 mm 2 mps 656 mmHg 35%
    13:00 +30°C° 0.1 mm 2 mps 656 mmHg 34%
    14:00 +31°C° 0.1 mm 2 mps 656 mmHg 33%
    15:00 +31°C° 0.1 mm 2 mps 656 mmHg 33%
    16:00 +31°C° 0.1 mm 2 mps 655 mmHg 33%
    17:00 +31°C° 0.1 mm 2 mps 655 mmHg 34%
    18:00 +29°C° 0.3 mm 2 mps 655 mmHg 40%
    19:00 +28°C° 0.3 mm 1 mps 655 mmHg 47%
    20:00 +26°C° 0.3 mm 1 mps 655 mmHg 54%
    21:00 +25°C° 0.5 mm 1 mps 655 mmHg 56%
    22:00 +25°C° 0.5 mm 1 mps 655 mmHg 58%
    23:00 +24°C° 0.5 mm 1 mps 655 mmHg 61%

    Day after tomorrow, 5 June, Friday

    Time Temperature Precipitation Wind Pressure Humidity
    00:00 +24°C° 0.4 mm 1 mps 655 mmHg 61%
    01:00 +24°C° 0.4 mm 2 mps 655 mmHg 61%
    02:00 +23°C° 0.4 mm 2 mps 655 mmHg 61%
    03:00 +23°C° 0.1 mm 2 mps 655 mmHg 60%
    04:00 +23°C° 0.1 mm 2 mps 655 mmHg 59%
    05:00 +23°C° 0.1 mm 2 mps 655 mmHg 59%
    06:00 +24°C° 0 mm 1 mps 655 mmHg 54%
    07:00 +25°C° 0 mm 1 mps 656 mmHg 50%
    08:00 +27°C° 0 mm 1 mps 657 mmHg 45%
    09:00 +28°C° 0 mm 1 mps 657 mmHg 42%
    10:00 +29°C° 0 mm 1 mps 657 mmHg 39%
    11:00 +30°C° 0 mm 2 mps 657 mmHg 37%
    12:00 +31°C° 0 mm 2 mps 657 mmHg 35%
    13:00 +31°C° 0 mm 2 mps 657 mmHg 34%
    14:00 +33°C° 0 mm 3 mps 656 mmHg 33%
    15:00 +33°C° 0.1 mm 3 mps 656 mmHg 33%
    16:00 +32°C° 0.1 mm 2 mps 656 mmHg 33%
    17:00 +32°C° 0.1 mm 2 mps 655 mmHg 33%
    18:00 +30°C° 0.1 mm 2 mps 655 mmHg 40%
    19:00 +29°C° 0.1 mm 1 mps 655 mmHg 47%
    20:00 +27°C° 0.1 mm 1 mps 655 mmHg 54%
    21:00 +26°C° 0 mm 1 mps 655 mmHg 55%
    22:00 +26°C° 0 mm 1 mps 655 mmHg 55%
    23:00 +25°C° 0 mm 1 mps 655 mmHg 56%

    6 June, Saturday

    Time Temperature Precipitation Wind Pressure Humidity
    00:00 +25°C° 0.1 mm 1 mps 655 mmHg 54%
    01:00 +24°C° 0.1 mm 2 mps 655 mmHg 53%
    02:00 +24°C° 0.1 mm 2 mps 655 mmHg 51%
    03:00 +24°C° 0 mm 2 mps 655 mmHg 50%
    04:00 +23°C° 0 mm 2 mps 655 mmHg 49%
    05:00 +23°C° 0 mm 2 mps 655 mmHg 47%
    06:00 +24°C° 0 mm 2 mps 655 mmHg 43%
    07:00 +26°C° 0 mm 1 mps 656 mmHg 39%
    08:00 +27°C° 0 mm 1 mps 657 mmHg 34%
    09:00 +28°C° 0 mm 1 mps 657 mmHg 35%
    10:00 +29°C° 0 mm 2 mps 657 mmHg 35%
    11:00 +30°C° 0 mm 2 mps 657 mmHg 35%
    12:00 +31°C° 0 mm 3 mps 657 mmHg 34%
    13:00 +31°C° 0 mm 3 mps 657 mmHg 34%
    14:00 +33°C° 0 mm 3 mps 656 mmHg 33%
    15:00 +33°C° 0 mm 3 mps 656 mmHg 34%
    16:00 +33°C° 0 mm 3 mps 655 mmHg 34%
    17:00 +33°C° 0 mm 3 mps 655 mmHg 35%
    18:00 +30°C° 0.1 mm 2 mps 655 mmHg 41%
    19:00 +29°C° 0.1 mm 2 mps 655 mmHg 47%
    20:00 +27°C° 0.1 mm 1 mps 655 mmHg 52%
    21:00 +27°C° 0.2 mm 1 mps 655 mmHg 54%
    22:00 +26°C° 0.2 mm 1 mps 655 mmHg 56%
    23:00 +25°C° 0.2 mm 1 mps 655 mmHg 58%

    7 June, Sunday

    Time Temperature Precipitation Wind Pressure Humidity
    00:00 +25°C° 0.2 mm 1 mps 655 mmHg 58%
    01:00 +24°C° 0.2 mm 1 mps 655 mmHg 57%
    02:00 +24°C° 0.2 mm 1 mps 655 mmHg 56%
    03:00 +23°C° 0 mm 2 mps 655 mmHg 55%
    04:00 +23°C° 0 mm 2 mps 655 mmHg 53%
    05:00 +21°C° 0 mm 2 mps 655 mmHg 52%
    06:00 +24°C° 0 mm 1 mps 655 mmHg 46%
    07:00 +26°C° 0 mm 1 mps 656 mmHg 40%
    08:00 +25°C° 0 mm 0 mps 656 mmHg 34%
    09:00 +28°C° 0 mm 1 mps 657 mmHg 34%
    10:00 +29°C° 0 mm 2 mps 657 mmHg 33%
    11:00 +30°C° 0 mm 2 mps 657 mmHg 33%
    12:00 +31°C° 0 mm 2 mps 657 mmHg 32%
    13:00 +33°C° 0 mm 3 mps 657 mmHg 32%
    14:00 +34°C° 0 mm 3 mps 656 mmHg 31%
    15:00 +34°C° 0 mm 3 mps 656 mmHg 32%
    16:00 +34°C° 0 mm 3 mps 656 mmHg 33%
    17:00 +33°C° 0 mm 3 mps 655 mmHg 34%
    18:00 +31°C° 0 mm 2 mps 655 mmHg 41%
    19:00 +29°C° 0 mm 2 mps 655 mmHg 48%
    20:00 +27°C° 0 mm 1 mps 655 mmHg 54%
    21:00 +27°C° 0 mm 1 mps 655 mmHg 56%
    22:00 +26°C° 0 mm 1 mps 655 mmHg 58%
    23:00 +26°C° 0 mm 1 mps 655 mmHg 61%

    8 June, Monday

    Time Temperature Precipitation Wind Pressure Humidity
    00:00 +25°C° 0 mm 1 mps 655 mmHg 59%
    01:00 +25°C° 0 mm 1 mps 655 mmHg 57%
    02:00 +25°C° 0 mm 1 mps 655 mmHg 56%
    03:00 +24°C° 0 mm 1 mps 655 mmHg 54%
    04:00 +24°C° 0 mm 1 mps 654 mmHg 52%
    05:00 +24°C° 0 mm 1 mps 654 mmHg 50%
    06:00 +25°C° 0 mm 1 mps 655 mmHg 45%
    07:00 +27°C° 0 mm 1 mps 655 mmHg 41%
    08:00 +26°C° 0 mm 0 mps 656 mmHg 36%
    09:00 +29°C° 0 mm 1 mps 656 mmHg 36%
    10:00 +30°C° 0 mm 1 mps 656 mmHg 36%
    11:00 +31°C° 0 mm 2 mps 656 mmHg 35%
    12:00 +32°C° 0 mm 2 mps 656 mmHg 34%
    13:00 +34°C° 0 mm 2 mps 656 mmHg 32%
    14:00 +34°C° 0 mm 2 mps 655 mmHg 30%
    15:00 +35°C° 0 mm 2 mps 655 mmHg 29%
    16:00 +35°C° 0 mm 2 mps 655 mmHg 28%
    17:00 +35°C° 0 mm 2 mps 655 mmHg 27%
    18:00 +32°C° 0 mm 2 mps 655 mmHg 34%
    19:00 +31°C° 0 mm 1 mps 654 mmHg 40%
    20:00 +29°C° 0 mm 1 mps 654 mmHg 46%
    21:00 +28°C° 0 mm 1 mps 654 mmHg 48%
    22:00 +28°C° 0 mm 1 mps 655 mmHg 50%
    23:00 +27°C° 0 mm 1 mps 655 mmHg 52%
    Show more